Home > Weather > Oradea > Past weeks

Flag for Romania Weather for the Past 2 Weeks in Oradea, Romania

Now
28 °F

Ice fog.


Feels Like: 23 °F
Forecast: 32 / 52 °F
Wind: 5 mph from East

Location: Oradea Airport

Current Time: Feb 6, 2016 at 3:27:58 AM

Latest Report: Feb 6, 2016 at 2:00 AM


Visibility: 3 mi

Pressure: 30.36 "Hg

Humidity: 100%

Dew point: 28 °F

Location of OradeaLocation

Historic Weather in Oradea — Graph

°F

Oradea Temperature Yesterday

Maximum temperature yesterday: 41 °F (at 1:30 PM)
Minimum temperature yesterday: 30 °F (at 8:00 AM)
Average temperature yesterday: 35 °F

High & Low Weather Summary for the Past Weeks

 TemperatureHumidityPressure
High54 °F (Feb 2, 12:30 PM)100% (Jan 22, 1:00 PM)30.63 "Hg (Jan 22, 1:00 PM)
Low7 °F (Jan 22, 6:00 AM)51% (Jan 23, 1:30 PM)29.86 "Hg (Jan 31, 5:30 AM)
Average36 °F85%30.28 "Hg
* Reported Jan 22 2:00 AM — Feb 6 2:00 AM, Oradea, Weather by CustomWeather, © 2016

Note: Actual official high and low records may vary slightly from our data, if they occured in-between our weather recording intervals... More about our weather records

Advertising

Oradea Weather History for the Previous 24 Hours

 ConditionsComfort  
Time TempWeatherWind HumidityBarometerVisibility
2:00 AM
Sat, Feb 6
28 °FIce fog.5 mph100%30.36 "Hg3 mi
1:00 AM30 °FIce fog.2 mph93%30.36 "Hg3 mi
12:00 AM30 °FIce fog.2 mph93%30.36 "Hg3 mi
11:00 PM
Fri, Feb 5
32 °FIce fog.No wind93%30.36 "Hg3 mi
10:30 PM30 °FIce fog.2 mph93%30.36 "Hg3 mi
10:00 PM32 °FChilly.3 mph87%30.36 "Hg4 mi
9:30 PM32 °FChilly.2 mph87%30.33 "Hg4 mi
9:00 PM32 °FClear.3 mph87%30.33 "Hg10 mi
8:30 PM36 °FClear.6 mph81%30.33 "Hg10 mi
8:00 PM36 °FClear.3 mph81%30.33 "Hg10 mi
7:30 PM36 °FClear.2 mph81%30.33 "Hg10 mi
7:00 PM37 °FClear.2 mph75%30.30 "Hg10 mi
6:30 PM37 °FPassing clouds.3 mph75%30.30 "HgN/A
6:00 PM39 °FPassing clouds.5 mph70%30.30 "HgN/A
5:30 PM41 °FPassing clouds.7 mph66%30.27 "HgN/A
5:00 PM41 °FPassing clouds.6 mph70%30.27 "HgN/A
4:30 PM41 °FPassing clouds.7 mph70%30.27 "HgN/A
4:00 PM41 °FPassing clouds.9 mph70%30.27 "HgN/A
3:30 PM41 °FPassing clouds.7 mph70%30.24 "HgN/A
3:00 PM41 °FPassing clouds.10 mph70%30.24 "HgN/A
2:30 PM41 °FPassing clouds.5 mph76%30.24 "HgN/A
2:00 PM41 °FPassing clouds.6 mph70%30.24 "HgN/A
1:30 PM41 °FPassing clouds.5 mph70%30.24 "HgN/A
1:00 PM39 °FPassing clouds.5 mph75%30.24 "HgN/A
12:30 PM39 °FSunny.2 mph75%30.24 "Hg10 mi
12:00 PM37 °FPassing clouds.3 mph81%30.24 "HgN/A
11:30 AM36 °FSunny.3 mph87%30.24 "Hg10 mi
11:00 AM36 °FSunny.5 mph81%30.21 "Hg10 mi
10:30 AM34 °FSunny.5 mph87%30.21 "Hg10 mi
10:00 AM34 °FSunny.3 mph87%30.21 "Hg10 mi
9:30 AM34 °FSunny.5 mph87%30.21 "Hg10 mi
9:00 AM32 °FSunny.6 mph87%30.18 "Hg10 mi
8:30 AM30 °FSunny.6 mph93%30.18 "Hg10 mi
8:00 AM30 °FSunny.6 mph93%30.18 "Hg10 mi
7:30 AM32 °FClear.6 mph87%30.15 "Hg10 mi
7:00 AM32 °FClear.7 mph87%30.15 "Hg10 mi
6:30 AM32 °FClear.8 mph87%30.15 "Hg10 mi
6:00 AM32 °FClear.7 mph87%30.15 "Hg10 mi
5:30 AM32 °FClear.8 mph93%30.12 "Hg10 mi
4:00 AM32 °FPassing clouds.8 mph93%30.12 "HgN/A
3:00 AM32 °FPassing clouds.8 mph93%30.12 "HgN/A
Weather by CustomWeather, © 2016

See weather overviewHow to use our weather pages